Jackson, MS

4:11 PM CDT on April 26, 2018 (GMT -0500)
Jackson-Evers International

Weather History for KJAN - January, 2014

Change the Weather History Date:

Sunday, January 5, 2014

  Actual Average Record
Temperature  
Mean Temperature 47 °F 46 °F  
Max Temperature 65 °F 56 °F 78 °F (1921)
Min Temperature 28 °F 35 °F 11 °F (1969)
Degree Days  
Heating Degree Days 18 20  
Month to date heating degree days 112 100  
Since 1 July heating degree days 1134 1050  
Cooling Degree Days 0 0  
Month to date cooling degree days 0 0  
Year to date cooling degree days 0 0  
Moisture  
Dew Point 44 °F    
Average Humidity 78    
Maximum Humidity 93    
Minimum Humidity 63    
Precipitation  
Precipitation 0.16 in 0.15 in 3.24 in (1950)
Month to date precipitation 0.74 0.72  
Year to date precipitation 0.74 0.72  
Sea Level Pressure  
Sea Level Pressure 29.96 in    
Wind  
Wind Speed 13 mph (SW)    
Max Wind Speed 25 mph    
Max Gust Speed 45 mph    
Visibility 7 miles    
Events Rain    
T = Trace of Precipitation, MM = Missing Value Source: NWS Daily Summary

Daily Weather History Graph

Daily Weather History Graph

Search for Another Location

Airport or City:

Astronomy

Jan. 05, 2014 Rise Set
Actual Time 7:02 AM CST 5:09 PM CST
Civil Twilight 6:35 AM CST 5:36 PM CST
Nautical Twilight 6:04 AM CST 6:06 PM CST
Astronomical Twilight 5:35 AM CST 6:36 PM CST
Moon 10:01 AM CST (1/5) 10:17 PM CST (1/5)
Length of Visible Light 11h 01m
Length of Day
10h 07m
Waxing Crescent, 25% of the Moon is Illuminated
Jan 5
Waxing Crescent
Jan 7
First Quarter
Jan 15
Full
Jan 23
Last Quarter
Jan 30
New

Hourly Weather History & Observations

Time (CST) Temp. Windchill Dew Point Humidity Pressure Visibility Wind Dir Wind Speed Gust Speed Precip Events Conditions
12:54 AM 43.0 °F 41.3 °F 39.9 °F 89% 30.03 in 10.0 mi SSE 3.5 mph - N/A   Mostly Cloudy
1:54 AM 45.0 °F 42.6 °F 42.1 °F 90% 30.02 in 10.0 mi SSE 4.6 mph - N/A   Mostly Cloudy
2:15 AM 46.4 °F 42.9 °F 42.8 °F 87% 30.02 in 10.0 mi SSE 6.9 mph - N/A   Overcast
2:54 AM 46.9 °F - 43.0 °F 86% 30.01 in 10.0 mi SSE 10.4 mph - N/A   Overcast
3:02 AM 46.4 °F 41.5 °F 42.8 °F 87% 30.00 in 10.0 mi SSE 10.4 mph - N/A   Overcast
3:18 AM 46.4 °F 41.9 °F 44.6 °F 93% 30.00 in 10.0 mi SSE 9.2 mph - N/A   Overcast
3:54 AM 46.9 °F - 44.1 °F 90% 29.99 in 10.0 mi SSE 6.9 mph - N/A   Overcast
4:41 AM 48.2 °F - 44.6 °F 87% 29.98 in 10.0 mi SSE 6.9 mph - N/A   Overcast
4:54 AM 48.0 °F - 44.1 °F 86% 29.98 in 9.0 mi SSE 6.9 mph - N/A   Overcast
5:54 AM 48.0 °F - 45.0 °F 89% 29.95 in 8.0 mi SSE 10.4 mph - N/A   Overcast
6:54 AM 48.9 °F - 45.0 °F 86% 29.95 in 9.0 mi SSE 12.7 mph - N/A   Overcast
7:54 AM 50.0 °F - 46.9 °F 89% 29.93 in 8.0 mi SE 15.0 mph - N/A   Overcast
8:54 AM 52.0 °F - 48.0 °F 86% 29.94 in 10.0 mi SSE 11.5 mph - N/A   Overcast
9:54 AM 54.0 °F - 48.0 °F 80% 29.94 in 10.0 mi SSE 9.2 mph - N/A   Overcast
10:54 AM 59.0 °F - 50.0 °F 72% 29.90 in 10.0 mi South 16.1 mph - N/A   Mostly Cloudy
11:54 AM 63.0 °F - 51.1 °F 65% 29.85 in 10.0 mi South 20.7 mph 27.6 mph N/A   Mostly Cloudy
12:54 PM 64.0 °F - 53.1 °F 67% 29.80 in 10.0 mi South 16.1 mph 32.2 mph N/A   Mostly Cloudy
1:54 PM 61.0 °F - 55.0 °F 81% 29.79 in 10.0 mi South 11.5 mph - 0.00 in Rain Light Rain
2:33 PM 60.8 °F - 55.4 °F 82% 29.80 in 4.0 mi SSW 9.2 mph - 0.01 in Rain Rain
2:40 PM 60.8 °F - 55.4 °F 82% 29.80 in 1.8 mi SW 9.2 mph - 0.03 in Rain Heavy Rain
2:49 PM 60.8 °F - 57.2 °F 88% 29.81 in 3.0 mi WSW 8.1 mph - 0.08 in Rain Light Rain
2:54 PM 59.0 °F - 57.0 °F 93% 29.81 in 4.0 mi WSW 5.8 mph - 0.09 in Rain Light Rain
3:07 PM 59.0 °F - 57.2 °F 94% 29.81 in 2.0 mi WSW 10.4 mph - 0.01 in Rain Light Rain
3:11 PM 59.0 °F - 57.2 °F 94% 29.82 in 3.0 mi SW 10.4 mph - 0.02 in Rain Light Rain
3:22 PM 59.0 °F - 57.2 °F 94% 29.82 in 1.5 mi SW 10.4 mph - 0.02 in Rain Light Rain
3:31 PM 59.0 °F - 57.2 °F 94% 29.83 in 1.0 mi WSW 5.8 mph - 0.03 in Rain Light Rain
3:54 PM 53.1 °F - 50.0 °F 89% 29.87 in 2.0 mi WNW 20.7 mph 29.9 mph 0.07 in Rain Light Rain
4:10 PM 51.8 °F - 48.2 °F 88% 29.88 in 2.5 mi West 13.8 mph 20.7 mph 0.00 in Rain Light Rain
4:18 PM 51.8 °F - 46.4 °F 82% 29.89 in 4.0 mi West 17.3 mph 25.3 mph 0.00 in Rain Light Rain
4:41 PM 48.2 °F - 44.6 °F 87% 29.92 in 7.0 mi WNW 13.8 mph 24.2 mph 0.00 in Rain Light Rain
4:54 PM 46.0 °F 39.3 °F 43.0 °F 89% 29.94 in 7.0 mi WNW 16.1 mph 25.3 mph 0.00 in Rain Light Rain
5:12 PM 44.6 °F 37.2 °F 39.2 °F 81% 29.96 in 7.0 mi WNW 17.3 mph 26.5 mph 0.00 in   Overcast
5:54 PM 42.1 °F 33.9 °F 39.0 °F 89% 30.00 in 7.0 mi NW 17.3 mph 26.5 mph 0.00 in   Overcast
6:23 PM 42.8 °F 34.3 °F 37.4 °F 81% 30.02 in 7.0 mi NW 19.6 mph 28.8 mph N/A   Overcast
6:45 PM 39.2 °F 30.2 °F 35.6 °F 87% 30.04 in 7.0 mi NW 17.3 mph 23.0 mph N/A   Overcast
6:54 PM 39.9 °F 31.4 °F 36.0 °F 86% 30.04 in 7.0 mi NW 16.1 mph 26.5 mph N/A   Overcast
7:54 PM 36.0 °F 24.4 °F 32.0 °F 86% 30.10 in 7.0 mi NNW 23.0 mph 28.8 mph 0.00 in   Overcast
8:49 PM 33.8 °F 22.8 °F 26.6 °F 75% 30.14 in 7.0 mi NW 18.4 mph 28.8 mph N/A   Overcast
8:54 PM 33.1 °F 21.9 °F 26.1 °F 75% 30.15 in 7.0 mi NW 18.4 mph 29.9 mph N/A   Overcast
9:54 PM 32.0 °F 21.2 °F 24.1 °F 73% 30.19 in 7.0 mi NW 16.1 mph 33.4 mph N/A   Overcast
10:54 PM 30.0 °F 19.1 °F 19.9 °F 66% 30.22 in 7.0 mi NNW 15.0 mph 29.9 mph N/A   Overcast
11:54 PM 28.0 °F 18.1 °F 19.9 °F 72% 30.25 in 7.0 mi NW 11.5 mph 21.9 mph N/A   Overcast